Погода в Доможирово

Россия / Санкт-Петербург и Ленинградская область     60°28′10″N   33°05′18″E
темп.,
°C
ветер,
м/с
пор.,
м/с
влажн.,
%
обл.,
%
осадки,
мм/ч
давл.,
гПа
погр.,
м
21 января, пт
пт2100:00−1ю41092100 0.4 988473
03:00−1ю3889100 0.4 990474
06:00−5ююв229693 0.0 99236
09:00−6юв259898 0.0 99484
12:00−4юв369596 0.0 996195
15:00−5в249714 0.0 99885
18:00−5всв3896100 0.1 1000230
21:00−7св3795100 0.2 1002135
22 января, сб
сб2200:00−6св41193100 0.0 1004299
03:00−5св41093100 0.0 1006418
06:00−5ссв4995100 0.1 1007460
09:00−7св489378 0.8 1010372
12:00−9св3796100 0.0 1012180
15:00−9св259684 0.0 1014163
18:00−14св239886 0.0 101739
21:00−16всв229839 0.0 101916
23 января, вс
вс2300:00−20в1110040 0.0 10219
03:00−21вюв1110042 0.0 10239
06:00−22юв1110076 0.0 102411
09:00−22юв2110099 0.0 102628
12:00−16ю239899 0.0 102764
15:00−12ю2595100 0.0 1028127
18:00−12ю379565 0.0 1029152
21:00−12ю3994100 0.0 1030186
24 января, пн
пн2400:00−11ю4109375 0.0 1030210
03:00−10ю4129294 0.0 1030269
06:00−9ю5129199 0.0 1029323
09:00−7ю51293100 0.1 1029362
12:00−6ю61490100 0.1 1027429
15:00−5ю61687100 0.1 1025494
18:00−6ю7188450 0.0 1023484
21:00−6ю7198259 0.0 1020569
25 января, вт
вт2500:00−5ююз81890100 0.2 1018650
03:00−5ююз71793100 0.6 1015616
06:00−5ююз61595100 0.9 1013551
09:00−5ю51395100 2.9 1011489
12:00−4ю41196100 2.2 1009432
15:00−3ю4996100 4.4 1007420
18:00−1з61296100 2.5 1007732
21:00−4юз41096100 3.4 1008359